Location: Los Gatos B&B
(42.6926°N, 77.0646°W)
Time: 22:49:26
(UTC-04:00)

SL-16 R/B - Visible Passes

Search period start: 25 April 2015 00:00
Search period end: 05 May 2015 00:00
Orbit: 840 x 850 km, 71.0° (Epoch: 24 April)

Date Brightness Start Highest point End Pass type
(mag) Time Alt. Az. Time Alt. Az. Time Alt. Az.
28 Apr 3.7 05:29:07 10° S 05:34:15 38° ESE 05:39:30 10° NE visible
29 Apr 3.7 05:15:10 10° S 05:20:16 37° ESE 05:25:28 10° NE visible
30 Apr 3.7 05:01:13 10° S 05:06:16 36° ESE 05:11:26 10° NE visible
01 May 3.7 04:47:16 10° SSE 04:52:17 34° ESE 04:57:24 10° NE visible
02 May 3.7 04:33:19 10° SSE 04:38:17 33° ESE 04:43:22 10° NE visible
03 May 3.7 04:19:23 10° SSE 04:24:18 32° ESE 04:29:19 10° NE visible
04 May 3.7 04:05:26 10° SSE 04:10:18 31° ESE 04:15:17 10° NE visible
